| time (UTC) | temp F | wind direction | speed MPH | gust MPH | rain 1hr in | rain 24hr in | rain mn in | humidity % | barometer mb |
| 20260831124721 | 81 | 104 | 0.0 | 1.0 | 0.00 | 0.00 | 0.00 | 83 | 1020.8 |
| 20260831124217 | 80 | 343 | 0.0 | 1.0 | 0.00 | 0.00 | 0.00 | 83 | 1020.9 |
| 20260831123716 | 80 | 113 | 0.0 | 0.0 | 0.00 | 0.00 | 0.00 | 83 | 1020.9 |
| 20260831123215 | 79 | 113 | 0.0 | 1.0 | 0.00 | 0.00 | 0.00 | 84 | 1020.9 |
| 20260831122710 | 80 | 113 | 0.0 | 2.0 | 0.00 | 0.00 | 0.00 | 83 | 1021.0 |
| 20260831122206 | 80 | 117 | 0.0 | 0.0 | 0.00 | 0.00 | 0.00 | 84 | 1020.9 |
| 20260831121705 | 79 | 117 | 0.0 | 1.0 | 0.00 | 0.00 | 0.00 | 84 | 1020.8 |
| 20260831121202 | 78 | 147 | 0.0 | 1.0 | 0.00 | 0.00 | 0.00 | 86 | 1020.9 |
| 20260831120657 | 77 | 147 | 0.0 | 1.0 | 0.00 | 0.00 | 0.00 | 88 | 1020.9 |
| 20260831120151 | 75 | 216 | 0.0 | 0.0 | 0.00 | 0.00 | 0.00 | 92 | 1020.7 |
| 20260831115647 | 75 | 206 | 0.0 | 0.0 | 0.00 | 0.00 | 0.00 | 93 | 1020.8 |
| 20260831115143 | 74 | 184 | 0.0 | 1.0 | 0.00 | 0.00 | 0.00 | 94 | 1020.6 |
| 20260831114642 | 73 | 210 | 0.0 | 0.0 | 0.00 | 0.00 | 0.00 | 97 | 1020.6 |
| 20260831114137 | 73 | 209 | 0.0 | 0.0 | 0.00 | 0.00 | 0.00 | 97 | 1020.6 |
| 20260831113637 | 72 | 213 | 0.0 | 0.0 | 0.00 | 0.00 | 0.00 | 98 | 1020.4 |
| 20260831113132 | 72 | 226 | 0.0 | 0.0 | 0.00 | 0.00 | 0.00 | 98 | 1020.5 |
| 20260831112631 | 72 | 225 | 0.0 | 0.0 | 0.00 | 0.00 | 0.00 | 99 | 1020.4 |
| 20260831112126 | 72 | 235 | 0.0 | 0.0 | 0.00 | 0.00 | 0.00 | 99 | 1020.3 |
| 20260831111622 | 71 | 235 | 0.0 | 0.0 | 0.00 | 0.00 | 0.00 | 99 | 1020.5 |
| 20260831111118 | 71 | 311 | 0.0 | 0.0 | 0.00 | 0.00 | 0.00 | 99 | 1020.4 |
| 20260831110613 | 71 | 240 | 0.0 | 0.0 | 0.00 | 0.00 | 0.00 | 99 | 1020.3 |
| 20260831110109 | 71 | 240 | 0.0 | 0.0 | 0.00 | 0.00 | 0.00 | 99 | 1020.3 |
| 20260831105607 | 71 | 229 | 0.0 | 0.0 | 0.00 | 0.00 | 0.00 | 99 | 1020.3 |
| 20260831105102 | 71 | 232 | 0.0 | 0.0 | 0.00 | 0.00 | 0.00 | 99 | 1020.3 |
| 20260831104558 | 71 | 239 | 0.0 | 0.0 | 0.00 | 0.00 | 0.00 | 99 | 1020.4 |
| 20260831104054 | 71 | 240 | 0.0 | 0.0 | 0.00 | 0.00 | 0.00 | 99 | 1020.2 |
| 20260831103549 | 71 | 240 | 0.0 | 0.0 | 0.00 | 0.00 | 0.00 | 99 | 1020.3 |
| 20260831103045 | 71 | 241 | 0.0 | 0.0 | 0.00 | 0.00 | 0.00 | 99 | 1020.3 |
| 20260831102544 | 71 | 240 | 0.0 | 0.0 | 0.00 | 0.00 | 0.00 | 99 | 1020.2 |
| 20260831102040 | 71 | 243 | 0.0 | 0.0 | 0.00 | 0.00 | 0.00 | 99 | 1020.1 |
| 20260831101535 | 71 | 242 | 0.0 | 0.0 | 0.00 | 0.00 | 0.00 | 99 | 1020.1 |
| 20260831101031 | 71 | 240 | 0.0 | 0.0 | 0.00 | 0.00 | 0.00 | 98 | 1020.0 |
| 20260831100526 | 71 | 241 | 0.0 | 0.0 | 0.00 | 0.00 | 0.00 | 98 | 1019.9 |
| 20260831100023 | 71 | 230 | 0.0 | 0.0 | 0.00 | 0.00 | 0.00 | 98 | 1019.7 |
| 20260831095521 | 71 | 239 | 0.0 | 0.0 | 0.00 | 0.00 | 0.00 | 98 | 1019.9 |
| 20260831095016 | 71 | 243 | 0.0 | 0.0 | 0.00 | 0.00 | 0.00 | 98 | 1019.9 |
| 20260831094512 | 71 | 245 | 0.0 | 0.0 | 0.00 | 0.00 | 0.00 | 98 | 1019.9 |
| 20260831094008 | 71 | 239 | 0.0 | 0.0 | 0.00 | 0.00 | 0.00 | 98 | 1020.1 |
| 20260831093508 | 71 | 237 | 0.0 | 0.0 | 0.00 | 0.00 | 0.00 | 98 | 1019.9 |
| 20260831093004 | 71 | 239 | 0.0 | 0.0 | 0.00 | 0.00 | 0.00 | 98 | 1020.2 |
| 20260831092459 | 71 | 236 | 0.0 | 0.0 | 0.00 | 0.00 | 0.00 | 98 | 1020.2 |
| 20260831091954 | 72 | 239 | 0.0 | 0.0 | 0.00 | 0.00 | 0.00 | 98 | 1019.9 |
| 20260831091450 | 72 | 239 | 0.0 | 0.0 | 0.00 | 0.00 | 0.00 | 98 | 1020.0 |
| 20260831090944 | 72 | 242 | 0.0 | 0.0 | 0.00 | 0.00 | 0.00 | 97 | 1020.1 |
| 20260831090441 | 72 | 243 | 0.0 | 0.0 | 0.00 | 0.00 | 0.00 | 97 | 1020.2 |
| 20260831085937 | 72 | 231 | 0.0 | 0.0 | 0.00 | 0.00 | 0.00 | 97 | 1020.1 |
| 20260831085432 | 72 | 249 | 0.0 | 0.0 | 0.00 | 0.00 | 0.00 | 97 | 1020.0 |
| 20260831084931 | 72 | 250 | 0.0 | 0.0 | 0.00 | 0.00 | 0.00 | 96 | 1020.1 |
| 20260831084427 | 72 | 249 | 0.0 | 0.0 | 0.00 | 0.00 | 0.00 | 96 | 1020.2 |
| 20260831083924 | 72 | 251 | 0.0 | 0.0 | 0.00 | 0.00 | 0.00 | 96 | 1020.1 |
| 20260831083419 | 73 | 250 | 0.0 | 0.0 | 0.00 | 0.00 | 0.00 | 95 | 1020.0 |
| 20260831082918 | 73 | 247 | 0.0 | 0.0 | 0.00 | 0.00 | 0.00 | 95 | 1019.9 |
| 20260831082412 | 73 | 240 | 0.0 | 0.0 | 0.00 | 0.00 | 0.00 | 95 | 1019.9 |
| 20260831081908 | 73 | 225 | 0.0 | 0.0 | 0.00 | 0.00 | 0.00 | 94 | 1020.0 |
| 20260831081403 | 74 | 212 | 0.0 | 0.0 | 0.00 | 0.00 | 0.00 | 94 | 1019.9 |
| 20260831080859 | 74 | 211 | 0.0 | 0.0 | 0.00 | 0.00 | 0.00 | 93 | 1019.9 |
| 20260831080354 | 74 | 177 | 0.0 | 0.0 | 0.00 | 0.00 | 0.00 | 94 | 1020.0 |
| 20260831075849 | 74 | 167 | 0.0 | 0.0 | 0.00 | 0.00 | 0.00 | 94 | 1020.0 |
| 20260831075344 | 74 | 167 | 0.0 | 0.0 | 0.00 | 0.00 | 0.00 | 93 | 1020.0 |
| 20260831074839 | 74 | 172 | 0.0 | 0.0 | 0.00 | 0.00 | 0.00 | 93 | 1019.8 |
| 20260831074338 | 74 | 173 | 0.0 | 0.0 | 0.00 | 0.00 | 0.00 | 93 | 1019.9 |
| 20260831073834 | 74 | 171 | 0.0 | 0.0 | 0.00 | 0.00 | 0.00 | 93 | 1020.1 |
| 20260831073333 | 74 | 152 | 0.0 | 1.0 | 0.00 | 0.00 | 0.00 | 93 | 1020.1 |
| 20260831072828 | 74 | 153 | 0.0 | 0.0 | 0.00 | 0.00 | 0.00 | 93 | 1020.0 |
| 20260831072324 | 74 | 183 | 0.0 | 0.0 | 0.00 | 0.00 | 0.00 | 93 | 1020.0 |
| 20260831071820 | 74 | 185 | 0.0 | 0.0 | 0.00 | 0.00 | 0.00 | 93 | 1020.2 |
| 20260831071319 | 74 | 149 | 0.0 | 0.0 | 0.00 | 0.00 | 0.00 | 93 | 1020.2 |
| 20260831070814 | 74 | 150 | 0.0 | 1.0 | 0.00 | 0.00 | 0.00 | 93 | 1020.2 |
| 20260831070312 | 74 | 154 | 0.0 | 0.0 | 0.00 | 0.00 | 0.00 | 93 | 1020.1 |
| 20260831065812 | 74 | 155 | 0.0 | 0.0 | 0.00 | 0.00 | 0.00 | 94 | 1020.1 |
| 20260831065310 | 74 | 154 | 0.0 | 0.0 | 0.00 | 0.00 | 0.00 | 94 | 1020.0 |
| 20260831064806 | 73 | 154 | 0.0 | 0.0 | 0.00 | 0.00 | 0.00 | 95 | 1020.3 |
| 20260831064301 | 73 | 155 | 0.0 | 0.0 | 0.00 | 0.00 | 0.00 | 95 | 1020.3 |
| 20260831063757 | 73 | 154 | 0.0 | 0.0 | 0.00 | 0.00 | 0.00 | 95 | 1020.3 |
| 20260831063251 | 73 | 155 | 0.0 | 0.0 | 0.00 | 0.00 | 0.00 | 95 | 1020.3 |
| 20260831062746 | 73 | 186 | 0.0 | 0.0 | 0.00 | 0.00 | 0.00 | 95 | 1020.3 |
| 20260831062241 | 73 | 239 | 0.0 | 0.0 | 0.00 | 0.00 | 0.00 | 95 | 1020.2 |
| 20260831061739 | 73 | 248 | 0.0 | 0.0 | 0.00 | 0.00 | 0.00 | 95 | 1020.0 |
| 20260831061234 | 73 | 248 | 0.0 | 0.0 | 0.00 | 0.00 | 0.00 | 95 | 1020.2 |
| 20260831060730 | 73 | 204 | 0.0 | 0.0 | 0.00 | 0.00 | 0.00 | 94 | 1020.3 |
| 20260831060225 | 74 | 205 | 0.0 | 0.0 | 0.00 | 0.00 | 0.00 | 94 | 1020.3 |
| 20260831055725 | 74 | 210 | 0.0 | 0.0 | 0.00 | 0.00 | 0.00 | 94 | 1020.5 |
| 20260831055224 | 74 | 248 | 0.0 | 0.0 | 0.00 | 0.00 | 0.00 | 93 | 1020.4 |
| 20260831054719 | 74 | 248 | 0.0 | 0.0 | 0.00 | 0.00 | 0.00 | 93 | 1020.3 |
| 20260831054215 | 74 | 248 | 0.0 | 0.0 | 0.00 | 0.00 | 0.00 | 93 | 1020.4 |
| 20260831053713 | 74 | 200 | 0.0 | 0.0 | 0.00 | 0.00 | 0.00 | 92 | 1020.3 |
| 20260831053213 | 75 | 200 | 0.0 | 0.0 | 0.00 | 0.00 | 0.00 | 92 | 1020.4 |
| 20260831052712 | 75 | 224 | 0.0 | 0.0 | 0.00 | 0.00 | 0.00 | 92 | 1020.7 |
| 20260831052211 | 75 | 235 | 0.0 | 0.0 | 0.00 | 0.00 | 0.00 | 92 | 1020.5 |
| 20260831051709 | 75 | 235 | 0.0 | 0.0 | 0.00 | 0.00 | 0.00 | 92 | 1020.4 |
| 20260831051208 | 75 | 331 | 0.0 | 0.0 | 0.00 | 0.00 | 0.00 | 92 | 1020.7 |
| 20260831050703 | 75 | 239 | 0.0 | 0.0 | 0.00 | 0.00 | 0.00 | 92 | 1020.8 |
| 20260831050202 | 75 | 239 | 0.0 | 0.0 | 0.00 | 0.00 | 0.00 | 92 | 1020.6 |
| 20260831045657 | 75 | 220 | 0.0 | 0.0 | 0.00 | 0.00 | 0.00 | 92 | 1020.6 |
| 20260831045152 | 75 | 183 | 0.0 | 1.0 | 0.00 | 0.00 | 0.00 | 92 | 1020.6 |
| 20260831044647 | 75 | 111 | 0.0 | 0.0 | 0.00 | 0.00 | 0.00 | 93 | 1020.8 |
| 20260831044142 | 75 | 111 | 0.0 | 0.0 | 0.00 | 0.00 | 0.00 | 93 | 1020.8 |
| 20260831043638 | 75 | 110 | 0.0 | 0.0 | 0.00 | 0.00 | 0.00 | 93 | 1020.8 |
| 20260831043133 | 75 | 108 | 0.0 | 0.0 | 0.00 | 0.00 | 0.00 | 93 | 1020.7 |
| 20260831042632 | 75 | 108 | 0.0 | 0.0 | 0.00 | 0.00 | 0.00 | 94 | 1020.8 |
| 20260831042127 | 75 | 111 | 0.0 | 0.0 | 0.00 | 0.00 | 0.00 | 94 | 1020.8 |
| 20260831041621 | 74 | 108 | 0.0 | 0.0 | 0.00 | 0.00 | 0.00 | 94 | 1020.7 |
| 20260831041120 | 74 | 112 | 0.0 | 0.0 | 0.00 | 0.00 | 0.00 | 94 | 1020.8 |
| 20260831040616 | 74 | 112 | 0.0 | 0.0 | 0.00 | 0.00 | 0.00 | 95 | 1020.8 |
| 20260831040109 | 75 | 108 | 0.0 | 0.0 | 0.00 | 0.00 | 0.00 | 95 | 1020.8 |
| 20260831035607 | 75 | 108 | 0.0 | 0.0 | 0.00 | 0.00 | 0.00 | 95 | 1020.8 |
| 20260831035057 | 75 | 109 | 0.0 | 0.0 | 0.00 | 0.00 | 0.00 | 94 | 1020.9 |
| 20260831034556 | 75 | 111 | 0.0 | 0.0 | 0.00 | 0.00 | 0.00 | 94 | 1021.0 |
| 20260831034052 | 75 | 110 | 0.0 | 0.0 | 0.00 | 0.00 | 0.00 | 94 | 1021.0 |
| 20260831033547 | 75 | 112 | 0.0 | 0.0 | 0.00 | 0.00 | 0.00 | 93 | 1021.1 |
| 20260831033042 | 75 | 109 | 0.0 | 0.0 | 0.00 | 0.00 | 0.00 | 93 | 1021.1 |
| 20260831032542 | 75 | 112 | 0.0 | 0.0 | 0.00 | 0.00 | 0.00 | 93 | 1020.9 |
| 20260831032038 | 75 | 111 | 0.0 | 0.0 | 0.00 | 0.00 | 0.00 | 93 | 1021.1 |
| 20260831031536 | 76 | 112 | 0.0 | 0.0 | 0.00 | 0.00 | 0.00 | 92 | 1021.1 |
| 20260831031031 | 76 | 112 | 0.0 | 0.0 | 0.00 | 0.00 | 0.00 | 92 | 1021.0 |
| 20260831030530 | 76 | 112 | 0.0 | 0.0 | 0.00 | 0.00 | 0.00 | 92 | 1021.1 |
| 20260831030030 | 76 | 111 | 0.0 | 0.0 | 0.00 | 0.00 | 0.00 | 92 | 1021.0 |
| 20260831025527 | 76 | 112 | 0.0 | 0.0 | 0.00 | 0.00 | 0.00 | 92 | 1021.2 |
| 20260831025023 | 76 | 111 | 0.0 | 0.0 | 0.00 | 0.00 | 0.00 | 92 | 1021.1 |
| 20260831024513 | 76 | 111 | 0.0 | 0.0 | 0.00 | 0.00 | 0.00 | 92 | 1021.0 |
| 20260831024013 | 76 | 111 | 0.0 | 0.0 | 0.00 | 0.00 | 0.00 | 92 | 1021.1 |
| 20260831023510 | 76 | 112 | 0.0 | 0.0 | 0.00 | 0.00 | 0.00 | 92 | 1021.0 |
| 20260831023005 | 76 | 111 | 0.0 | 0.0 | 0.00 | 0.00 | 0.00 | 92 | 1020.8 |
| 20260831022504 | 76 | 112 | 0.0 | 0.0 | 0.00 | 0.00 | 0.00 | 91 | 1021.0 |
| 20260831022000 | 76 | 111 | 0.0 | 0.0 | 0.00 | 0.00 | 0.00 | 91 | 1021.2 |
| 20260831021458 | 77 | 112 | 0.0 | 0.0 | 0.00 | 0.00 | 0.00 | 90 | 1021.3 |
| 20260831020954 | 77 | 112 | 0.0 | 0.0 | 0.00 | 0.00 | 0.00 | 90 | 1021.0 |
| 20260831020449 | 77 | 112 | 0.0 | 0.0 | 0.00 | 0.00 | 0.00 | 90 | 1021.1 |
| 20260831015943 | 77 | 112 | 0.0 | 0.0 | 0.00 | 0.00 | 0.00 | 89 | 1021.1 |
| 20260831015439 | 77 | 112 | 0.0 | 0.0 | 0.00 | 0.00 | 0.00 | 89 | 1021.0 |
| 20260831014934 | 77 | 112 | 0.0 | 0.0 | 0.00 | 0.00 | 0.00 | 88 | 1021.2 |
| 20260831014429 | 77 | 111 | 0.0 | 1.0 | 0.00 | 0.00 | 0.00 | 89 | 1021.2 |
| 20260831013924 | 77 | 250 | 0.0 | 0.0 | 0.00 | 0.00 | 0.00 | 90 | 1021.0 |
| 20260831013420 | 77 | 239 | 0.0 | 0.0 | 0.00 | 0.00 | 0.00 | 90 | 1021.2 |
| 20260831012914 | 77 | 248 | 0.0 | 0.0 | 0.00 | 0.00 | 0.00 | 89 | 1021.2 |
| 20260831012409 | 77 | 249 | 0.0 | 0.0 | 0.00 | 0.00 | 0.00 | 88 | 1021.3 |
| 20260831011909 | 78 | 250 | 0.0 | 0.0 | 0.00 | 0.00 | 0.00 | 88 | 1021.3 |
| 20260831011404 | 78 | 250 | 0.0 | 0.0 | 0.00 | 0.00 | 0.00 | 87 | 1021.2 |
| 20260831010859 | 78 | 257 | 0.0 | 0.0 | 0.00 | 0.00 | 0.00 | 87 | 1021.2 |
| 20260831010354 | 78 | 250 | 0.0 | 0.0 | 0.00 | 0.00 | 0.00 | 86 | 1021.0 |
| 20260831005850 | 78 | 242 | 0.0 | 0.0 | 0.00 | 0.00 | 0.00 | 86 | 1021.0 |
| 20260831005345 | 78 | 248 | 0.0 | 0.0 | 0.00 | 0.00 | 0.00 | 86 | 1020.8 |
| 20260831004840 | 79 | 246 | 0.0 | 0.0 | 0.00 | 0.00 | 0.00 | 85 | 1020.9 |
| 20260831004336 | 79 | 247 | 0.0 | 0.0 | 0.00 | 0.00 | 0.00 | 85 | 1020.7 |
| 20260831003832 | 79 | 146 | 0.0 | 0.0 | 0.00 | 0.00 | 0.00 | 84 | 1020.7 |
| 20260831003328 | 79 | 254 | 0.0 | 0.0 | 0.00 | 0.00 | 0.00 | 84 | 1020.6 |
| 20260831002827 | 79 | 238 | 0.0 | 0.0 | 0.00 | 0.00 | 0.00 | 84 | 1020.4 |
| 20260831002320 | 79 | 238 | 0.0 | 0.0 | 0.00 | 0.00 | 0.00 | 83 | 1020.3 |
| 20260831001816 | 79 | 238 | 0.0 | 0.0 | 0.00 | 0.00 | 0.00 | 83 | 1020.4 |
| 20260831001311 | 80 | 238 | 0.0 | 0.0 | 0.00 | 0.00 | 0.00 | 83 | 1020.4 |
| 20260831000809 | 80 | 238 | 0.0 | 0.0 | 0.00 | 0.00 | 0.00 | 81 | 1020.4 |
| 20260831000310 | 80 | 254 | 0.0 | 0.0 | 0.00 | 0.00 | 0.00 | 80 | 1020.3 |
| 20260830235807 | 80 | 235 | 0.0 | 0.0 | 0.00 | 0.00 | 0.00 | 79 | 1020.6 |
| 20260830235305 | 81 | 235 | 0.0 | 0.0 | 0.00 | 0.00 | 0.00 | 79 | 1020.3 |
| 20260830234757 | 81 | 235 | 0.0 | 0.0 | 0.00 | 0.00 | 0.00 | 78 | 1020.4 |
| 20260830234253 | 81 | 211 | 0.0 | 0.0 | 0.00 | 0.00 | 0.00 | 77 | 1020.3 |
| 20260830233748 | 82 | 211 | 0.0 | 0.0 | 0.00 | 0.00 | 0.00 | 76 | 1020.3 |
| 20260830233243 | 82 | 233 | 0.0 | 0.0 | 0.00 | 0.00 | 0.00 | 76 | 1020.3 |
| 20260830232734 | 82 | 232 | 0.0 | 0.0 | 0.00 | 0.00 | 0.00 | 75 | 1020.4 |
| 20260830232229 | 83 | 231 | 0.0 | 0.0 | 0.00 | 0.00 | 0.00 | 74 | 1020.4 |
| 20260830231725 | 83 | 231 | 0.0 | 0.0 | 0.00 | 0.00 | 0.00 | 73 | 1020.4 |
| 20260830231225 | 84 | 231 | 0.0 | 0.0 | 0.00 | 0.00 | 0.00 | 72 | 1020.4 |
| 20260830230720 | 85 | 231 | 0.0 | 0.0 | 0.00 | 0.00 | 0.00 | 69 | 1020.3 |
| 20260830230215 | 86 | 216 | 0.0 | 0.0 | 0.00 | 0.00 | 0.00 | 67 | 1020.1 |
| 20260830225709 | 86 | 198 | 0.0 | 2.0 | 0.00 | 0.00 | 0.00 | 66 | 1020.2 |
| 20260830225209 | 86 | 213 | 0.0 | 1.0 | 0.00 | 0.00 | 0.00 | 66 | 1020.2 |
| 20260830224708 | 86 | 225 | 0.0 | 0.0 | 0.00 | 0.00 | 0.00 | 65 | 1020.2 |
| 20260830224204 | 86 | 219 | 0.0 | 2.0 | 0.00 | 0.00 | 0.00 | 64 | 1020.3 |
| 20260830223701 | 86 | 213 | 0.0 | 0.0 | 0.00 | 0.00 | 0.00 | 67 | 1020.4 |
| 20260830223156 | 87 | 223 | 0.0 | 0.0 | 0.00 | 0.00 | 0.00 | 64 | 1020.2 |
| 20260830222650 | 87 | 165 | 2.0 | 3.0 | 0.00 | 0.00 | 0.00 | 62 | 1020.1 |
| 20260830222146 | 87 | 199 | 0.0 | 0.0 | 0.00 | 0.00 | 0.00 | 63 | 1020.2 |
| 20260830221641 | 87 | 190 | 1.0 | 1.0 | 0.00 | 0.00 | 0.00 | 62 | 1020.3 |
| 20260830221132 | 87 | 219 | 0.0 | 4.0 | 0.00 | 0.00 | 0.00 | 62 | 1020.3 |
| 20260830220627 | 88 | 202 | 0.0 | 0.0 | 0.00 | 0.00 | 0.00 | 61 | 1020.2 |
| 20260830220126 | 89 | 210 | 2.0 | 3.0 | 0.00 | 0.00 | 0.00 | 59 | 1020.3 |
| 20260830215625 | 90 | 218 | 0.0 | 1.0 | 0.00 | 0.00 | 0.00 | 57 | 1020.2 |
| 20260830215120 | 91 | 220 | 0.0 | 2.0 | 0.00 | 0.00 | 0.00 | 57 | 1020.1 |
| 20260830214615 | 90 | 218 | 0.0 | 1.0 | 0.00 | 0.00 | 0.00 | 57 | 1020.2 |
| 20260830214109 | 90 | 219 | 0.0 | 2.0 | 0.00 | 0.00 | 0.00 | 57 | 1020.2 |
| 20260830213603 | 91 | 112 | 3.0 | 4.0 | 0.00 | 0.00 | 0.00 | 55 | 1020.3 |
| 20260830213059 | 90 | 227 | 0.0 | 2.0 | 0.00 | 0.00 | 0.00 | 57 | 1020.1 |
| 20260830212555 | 90 | 188 | 1.0 | 1.0 | 0.00 | 0.00 | 0.00 | 58 | 1020.1 |
| 20260830212055 | 91 | 180 | 2.0 | 3.0 | 0.00 | 0.00 | 0.00 | 56 | 1020.1 |
| 20260830211549 | 92 | 203 | 1.0 | 1.0 | 0.00 | 0.00 | 0.00 | 54 | 1020.0 |
| 20260830211044 | 91 | 251 | 0.0 | 2.0 | 0.00 | 0.00 | 0.00 | 55 | 1020.0 |
| 20260830210539 | 91 | 224 | 0.0 | 2.0 | 0.00 | 0.00 | 0.00 | 55 | 1020.0 |
| 20260830210038 | 91 | 219 | 1.0 | 2.0 | 0.00 | 0.00 | 0.00 | 56 | 1020.0 |
| 20260830205536 | 91 | 186 | 3.0 | 4.0 | 0.00 | 0.00 | 0.00 | 54 | 1020.0 |
| 20260830205032 | 90 | 239 | 0.0 | 2.0 | 0.00 | 0.00 | 0.00 | 57 | 1020.2 |
| 20260830204530 | 91 | 99 | 1.0 | 3.0 | 0.00 | 0.00 | 0.00 | 58 | 1020.3 |
| 20260830204024 | 91 | 238 | 0.0 | 2.0 | 0.00 | 0.00 | 0.00 | 55 | 1020.2 |
| 20260830203520 | 91 | 250 | 1.0 | 2.0 | 0.00 | 0.00 | 0.00 | 56 | 1020.3 |
| 20260830203010 | 92 | 221 | 1.0 | 2.0 | 0.00 | 0.00 | 0.00 | 55 | 1020.1 |
| 20260830202504 | 92 | 225 | 0.0 | 1.0 | 0.00 | 0.00 | 0.00 | 55 | 1020.5 |
| 20260830202001 | 92 | 219 | 0.0 | 1.0 | 0.00 | 0.00 | 0.00 | 56 | 1020.5 |
| 20260830201459 | 91 | 242 | 0.0 | 1.0 | 0.00 | 0.00 | 0.00 | 58 | 1020.3 |
| 20260830200954 | 90 | 219 | 0.0 | 2.0 | 0.00 | 0.00 | 0.00 | 56 | 1020.4 |
| 20260830200449 | 91 | 89 | 2.0 | 2.0 | 0.00 | 0.00 | 0.00 | 57 | 1020.5 |
| 20260830195948 | 91 | 226 | 1.0 | 3.0 | 0.00 | 0.00 | 0.00 | 57 | 1020.7 |
| 20260830195444 | 91 | 207 | 1.0 | 2.0 | 0.00 | 0.00 | 0.00 | 56 | 1020.8 |
| 20260830194942 | 91 | 246 | 0.0 | 1.0 | 0.00 | 0.00 | 0.00 | 56 | 1020.7 |
| 20260830194441 | 91 | 247 | 0.0 | 1.0 | 0.00 | 0.00 | 0.00 | 57 | 1021.0 |
| 20260830193936 | 90 | 237 | 1.0 | 3.0 | 0.00 | 0.00 | 0.00 | 61 | 1021.0 |
| 20260830193435 | 89 | 214 | 0.0 | 1.0 | 0.00 | 0.00 | 0.00 | 59 | 1021.3 |
| 20260830192930 | 90 | 73 | 1.0 | 2.0 | 0.00 | 0.00 | 0.00 | 58 | 1021.4 |
| 20260830192425 | 91 | 239 | 1.0 | 1.0 | 0.00 | 0.00 | 0.00 | 59 | 1021.4 |
| 20260830191920 | 91 | 239 | 1.0 | 1.0 | 0.00 | 0.00 | 0.00 | 57 | 1021.4 |
| 20260830191415 | 90 | 228 | 1.0 | 2.0 | 0.00 | 0.00 | 0.00 | 61 | 1021.3 |
| 20260830190911 | 90 | 233 | 0.0 | 1.0 | 0.00 | 0.00 | 0.00 | 60 | 1021.6 |
| 20260830190406 | 89 | 226 | 1.0 | 4.0 | 0.00 | 0.00 | 0.00 | 61 | 1021.4 |
| 20260830185905 | 90 | 184 | 1.0 | 2.0 | 0.00 | 0.00 | 0.00 | 61 | 1021.6 |
| 20260830185400 | 89 | 171 | 2.0 | 3.0 | 0.00 | 0.00 | 0.00 | 59 | 1021.7 |
| 20260830184855 | 90 | 238 | 1.0 | 3.0 | 0.00 | 0.00 | 0.00 | 60 | 1021.8 |
| 20260830184354 | 91 | 224 | 1.0 | 2.0 | 0.00 | 0.00 | 0.00 | 60 | 1021.7 |
| 20260830183848 | 90 | 66 | 2.0 | 2.0 | 0.00 | 0.00 | 0.00 | 61 | 1021.8 |
| 20260830183343 | 89 | 213 | 0.0 | 3.0 | 0.00 | 0.00 | 0.00 | 63 | 1021.9 |
| 20260830182838 | 89 | 229 | 2.0 | 4.0 | 0.00 | 0.00 | 0.00 | 63 | 1022.0 |
| 20260830182334 | 88 | 231 | 0.0 | 2.0 | 0.00 | 0.00 | 0.00 | 64 | 1022.2 |
| 20260830181830 | 89 | 12 | 2.0 | 2.0 | 0.00 | 0.00 | 0.00 | 64 | 1022.3 |
| 20260830181325 | 88 | 225 | 1.0 | 1.0 | 0.00 | 0.00 | 0.00 | 64 | 1022.4 |
| 20260830180825 | 88 | 241 | 0.0 | 1.0 | 0.00 | 0.00 | 0.00 | 64 | 1022.5 |
| 20260830180319 | 89 | 233 | 0.0 | 1.0 | 0.00 | 0.00 | 0.00 | 64 | 1022.6 |
| 20260830175818 | 89 | 281 | 2.0 | 4.0 | 0.00 | 0.00 | 0.00 | 62 | 1022.6 |
| 20260830175313 | 89 | 101 | 1.0 | 2.0 | 0.00 | 0.00 | 0.00 | 64 | 1022.7 |
| 20260830174809 | 89 | 189 | 1.0 | 4.0 | 0.00 | 0.00 | 0.00 | 62 | 1022.6 |
| 20260830174304 | 89 | 121 | 3.0 | 4.0 | 0.00 | 0.00 | 0.00 | 62 | 1022.7 |
| 20260830173803 | 89 | 248 | 0.0 | 8.0 | 0.00 | 0.00 | 0.00 | 66 | 1022.8 |
| 20260830173259 | 89 | 243 | 3.0 | 3.0 | 0.00 | 0.00 | 0.00 | 62 | 1022.7 |
| 20260830172755 | 89 | 227 | 1.0 | 3.0 | 0.00 | 0.00 | 0.00 | 66 | 1022.8 |
| 20260830172252 | 87 | 114 | 2.0 | 2.0 | 0.00 | 0.00 | 0.00 | 66 | 1023.0 |
| 20260830171747 | 88 | 235 | 1.0 | 2.0 | 0.00 | 0.00 | 0.00 | 67 | 1022.9 |
| 20260830171242 | 88 | 355 | 0.0 | 2.0 | 0.00 | 0.00 | 0.00 | 66 | 1023.0 |
| 20260830170737 | 88 | 238 | 0.0 | 1.0 | 0.00 | 0.00 | 0.00 | 68 | 1023.1 |
| 20260830170236 | 87 | 227 | 0.0 | 1.0 | 0.00 | 0.00 | 0.00 | 67 | 1023.3 |
| 20260830165735 | 86 | 236 | 1.0 | 2.0 | 0.00 | 0.00 | 0.00 | 70 | 1022.9 |
| 20260830165231 | 87 | 313 | 1.0 | 1.0 | 0.00 | 0.00 | 0.00 | 68 | 1023.0 |
| 20260830164727 | 88 | 174 | 0.0 | 1.0 | 0.00 | 0.00 | 0.00 | 64 | 1023.1 |
| 20260830164223 | 88 | 223 | 1.0 | 2.0 | 0.00 | 0.00 | 0.00 | 68 | 1023.4 |
| 20260830163719 | 88 | 133 | 0.0 | 2.0 | 0.00 | 0.00 | 0.00 | 67 | 1023.5 |
| 20260830163214 | 87 | 282 | 1.0 | 2.0 | 0.00 | 0.00 | 0.00 | 70 | 1023.3 |
| 20260830162704 | 86 | 119 | 1.0 | 2.0 | 0.00 | 0.00 | 0.00 | 71 | 1023.3 |
| 20260830162200 | 85 | 228 | 1.0 | 3.0 | 0.00 | 0.00 | 0.00 | 71 | 1023.4 |
| 20260830161655 | 84 | 116 | 0.0 | 1.0 | 0.00 | 0.00 | 0.00 | 74 | 1023.4 |
| 20260830161149 | 85 | 245 | 0.0 | 2.0 | 0.00 | 0.00 | 0.00 | 73 | 1023.6 |
| 20260830160645 | 86 | 246 | 0.0 | 2.0 | 0.00 | 0.00 | 0.00 | 73 | 1023.5 |
| 20260830160139 | 87 | 157 | 0.0 | 2.0 | 0.00 | 0.00 | 0.00 | 70 | 1023.7 |
| 20260830155636 | 86 | 200 | 1.0 | 3.0 | 0.00 | 0.00 | 0.00 | 71 | 1023.7 |
| 20260830155132 | 86 | 238 | 0.0 | 3.0 | 0.00 | 0.00 | 0.00 | 74 | 1024.0 |
| 20260830154626 | 85 | 235 | 1.0 | 2.0 | 0.00 | 0.00 | 0.00 | 74 | 1023.9 |
| 20260830154123 | 83 | 153 | 0.0 | 1.0 | 0.00 | 0.00 | 0.00 | 76 | 1023.8 |
| 20260830153619 | 83 | 213 | 1.0 | 4.0 | 0.00 | 0.00 | 0.00 | 77 | 1023.9 |
| 20260830153119 | 84 | 249 | 0.0 | 2.0 | 0.00 | 0.00 | 0.00 | 76 | 1023.9 |
| 20260830152618 | 84 | 142 | 1.0 | 2.0 | 0.00 | 0.00 | 0.00 | 75 | 1024.0 |
| 20260830152116 | 83 | 238 | 0.0 | 1.0 | 0.00 | 0.00 | 0.00 | 76 | 1023.9 |
| 20260830151611 | 84 | 255 | 1.0 | 4.0 | 0.00 | 0.00 | 0.00 | 73 | 1023.8 |
| 20260830151106 | 84 | 197 | 2.0 | 3.0 | 0.00 | 0.00 | 0.00 | 75 | 1023.9 |
| 20260830150601 | 85 | 221 | 1.0 | 1.0 | 0.00 | 0.00 | 0.00 | 73 | 1023.9 |
| 20260830150055 | 84 | 114 | 3.0 | 3.0 | 0.00 | 0.00 | 0.00 | 75 | 1023.9 |
| 20260830145549 | 84 | 175 | 0.0 | 3.0 | 0.00 | 0.00 | 0.00 | 77 | 1024.0 |
| 20260830145045 | 84 | 121 | 1.0 | 3.0 | 0.00 | 0.00 | 0.00 | 79 | 1024.1 |
| 20260830144541 | 84 | 181 | 1.0 | 3.0 | 0.00 | 0.00 | 0.00 | 78 | 1024.0 |
| 20260830144036 | 84 | 271 | 1.0 | 2.0 | 0.00 | 0.00 | 0.00 | 79 | 1024.0 |
| 20260830143532 | 83 | 211 | 1.0 | 3.0 | 0.00 | 0.00 | 0.00 | 80 | 1024.1 |
| 20260830143030 | 82 | 121 | 1.0 | 2.0 | 0.00 | 0.00 | 0.00 | 82 | 1024.1 |
| 20260830142526 | 81 | 152 | 2.0 | 3.0 | 0.00 | 0.00 | 0.00 | 83 | 1024.1 |
| 20260830142021 | 80 | 267 | 0.0 | 3.0 | 0.00 | 0.00 | 0.00 | 86 | 1024.3 |
| 20260830141515 | 81 | 113 | 4.0 | 4.0 | 0.00 | 0.00 | 0.00 | 86 | 1024.3 |
| 20260830141010 | 80 | 160 | 1.0 | 2.0 | 0.00 | 0.00 | 0.00 | 87 | 1024.2 |
| 20260830140510 | 80 | 359 | 0.0 | 1.0 | 0.00 | 0.00 | 0.00 | 86 | 1024.3 |
| 20260830140006 | 79 | 128 | 1.0 | 2.0 | 0.00 | 0.00 | 0.00 | 88 | 1024.3 |
| 20260830135500 | 79 | 228 | 1.0 | 1.0 | 0.00 | 0.00 | 0.00 | 91 | 1024.3 |
| 20260830134955 | 77 | 86 | 0.0 | 1.0 | 0.00 | 0.00 | 0.00 | 94 | 1024.6 |
| 20260830134451 | 76 | 129 | 1.0 | 2.0 | 0.00 | 0.00 | 0.00 | 94 | 1024.6 |
| 20260830133946 | 76 | 129 | 0.0 | 1.0 | 0.00 | 0.00 | 0.00 | 97 | 1024.5 |
| 20260830133442 | 74 | 218 | 0.0 | 1.0 | 0.00 | 0.00 | 0.00 | 99 | 1024.6 |
| 20260830132937 | 74 | 224 | 0.0 | 1.0 | 0.00 | 0.00 | 0.00 | 99 | 1024.7 |
| 20260830132433 | 73 | 250 | 0.0 | 0.0 | 0.00 | 0.00 | 0.00 | 99 | 1024.7 |
| 20260830131932 | 73 | 167 | 1.0 | 2.0 | 0.00 | 0.00 | 0.00 | 99 | 1024.8 |
| 20260830131432 | 73 | 114 | 0.0 | 2.0 | 0.00 | 0.00 | 0.00 | 99 | 1024.8 |
| 20260830130926 | 73 | 1 | 1.0 | 2.0 | 0.00 | 0.00 | 0.00 | 99 | 1024.9 |
| 20260830130422 | 72 | 280 | 0.0 | 1.0 | 0.00 | 0.00 | 0.00 | 99 | 1025.0 |
| 20260830125921 | 72 | 153 | 0.0 | 1.0 | 0.00 | 0.00 | 0.00 | 99 | 1024.9 |
| 20260830125417 | 72 | 230 | 0.0 | 1.0 | 0.00 | 0.00 | 0.00 | 99 | 1025.0 |